Weather History for Greenville Downtown, SC

Change the Weather History Date:

Wednesday, December 5, 2012

  Actual Average Record
Temperature  
Mean Temperature 60 °F -  
Max Temperature 66 °F 54 °F 73 °F (1998)
Min Temperature 55 °F 37 °F 25 °F (2000)
Degree Days  
Heating Degree Days 4    
Growing Degree Days 10 (Base 50)    
Moisture  
Dew Point 53 °F    
Average Humidity 78    
Maximum Humidity 90    
Minimum Humidity 64    
Precipitation  
Precipitation 0.05 in - - ()
Sea Level Pressure  
Sea Level Pressure 30.16 in    
Wind  
Wind Speed 4 mph (NE)    
Max Wind Speed 10 mph    
Max Gust Speed -    
Visibility 10 miles    
Events Rain    
Averages and records for this station are not official NWS values.
T = Trace of Precipitation, MM = Missing Value Source: NWS Daily Summary

Daily Weather History Graph

Daily Weather History Graph

Search for Another Location

Airport:

Trip Planner

Search our weather history database for the weather conditions in past years. The results will help you decide how hot, cold, wet, or windy it might be!

Date:

Astronomy

Dec. 05, 2012 Rise Set
Actual Time 7:22 AM EST 5:17 PM EST
Civil Twilight 6:54 AM EST 5:45 PM EST
Nautical Twilight 6:23 AM EST 6:17 PM EST
Astronomical Twilight 5:52 AM EST 6:47 PM EST
Moon 11:54 PM EST (12/5) 11:56 AM EST (12/5)
Length of Visible Light 10h 51m
Length of Day
9h 55m
Waning Gibbous, 60% of the Moon is Illuminated
Dec 5
Waning Gibbous
Dec 6
Last Quarter
Dec 13
New
Dec 20
First Quarter
Dec 28
Full

Hourly Weather History & Observations

Time (EST) Temp. Dew Point Humidity Pressure Visibility Wind Dir Wind Speed Gust Speed Precip Events Conditions
12:53 AM 57.0 °F 51.1 °F 81% 30.18 in 10.0 mi WSW 5.8 mph - N/A   Clear
1:53 AM 57.0 °F 51.1 °F 81% 30.18 in 10.0 mi Calm Calm - N/A   Clear
2:53 AM 55.9 °F 51.1 °F 84% 30.18 in 10.0 mi SSW 5.8 mph - N/A   Scattered Clouds
3:53 AM 55.9 °F 51.1 °F 84% 30.16 in 10.0 mi SSW 3.5 mph - N/A   Clear
4:53 AM 55.9 °F 51.1 °F 84% 30.15 in 10.0 mi SW 4.6 mph - N/A   Clear
5:53 AM 57.0 °F 52.0 °F 83% 30.16 in 10.0 mi South 3.5 mph - N/A   Mostly Cloudy
6:53 AM 55.9 °F 51.1 °F 84% 30.17 in 10.0 mi SW 3.5 mph - N/A   Scattered Clouds
7:53 AM 55.0 °F 51.1 °F 86% 30.19 in 10.0 mi Calm Calm - N/A   Scattered Clouds
9:53 AM 63.0 °F 53.1 °F 70% 30.19 in 10.0 mi WSW 10.4 mph - N/A   Clear
10:53 AM 66.0 °F 55.9 °F 70% 30.18 in 10.0 mi West 9.2 mph - 0.00 in Rain Light Rain
11:53 AM 64.0 °F 55.9 °F 75% 30.17 in 10.0 mi SW 9.2 mph - 0.00 in Rain Light Rain
12:53 PM 64.0 °F 55.9 °F 75% 30.15 in 10.0 mi West 8.1 mph - 0.00 in Rain Light Rain
1:53 PM 64.0 °F 57.9 °F 80% 30.13 in 10.0 mi SSW 3.5 mph - 0.00 in Rain Light Rain
2:48 PM 64.4 °F 57.2 °F 77% 30.14 in 10.0 mi Calm Calm - 0.00 in   Mostly Cloudy
2:53 PM 64.9 °F 57.9 °F 78% 30.12 in 10.0 mi Calm Calm - 0.00 in   Mostly Cloudy
3:25 PM 64.4 °F 57.2 °F 77% 30.13 in 10.0 mi Calm Calm - N/A   Overcast
3:44 PM 64.4 °F 55.4 °F 73% 30.13 in 10.0 mi Calm Calm - N/A   Overcast
3:53 PM 64.9 °F 55.9 °F 73% 30.12 in 10.0 mi NNE 3.5 mph - N/A   Overcast
4:04 PM 64.4 °F 55.4 °F 73% 30.13 in 10.0 mi Calm Calm - 0.00 in Rain Light Rain
4:53 PM 64.0 °F 55.9 °F 75% 30.13 in 10.0 mi NE 3.5 mph - 0.00 in Rain Light Rain
5:53 PM 63.0 °F 53.1 °F 70% 30.15 in 10.0 mi NE 6.9 mph - 0.00 in   Overcast
6:53 PM 61.0 °F 52.0 °F 72% 30.16 in 10.0 mi NNE 8.1 mph - 0.00 in Rain Light Rain
7:53 PM 57.9 °F 55.0 °F 90% 30.18 in 6.0 mi NE 4.6 mph - 0.03 in Rain Light Rain
8:26 PM 59.0 °F 55.4 °F 88% 30.20 in 6.0 mi ENE 5.8 mph - 0.01 in Rain Light Rain
8:44 PM 57.2 °F 51.8 °F 82% 30.20 in 10.0 mi East 6.9 mph - 0.02 in Rain Light Rain
8:53 PM 57.9 °F 54.0 °F 87% 30.19 in 10.0 mi ENE 5.8 mph - 0.02 in Rain Light Rain
9:53 PM 57.0 °F 53.1 °F 87% 30.19 in 10.0 mi NE 4.6 mph - 0.00 in   Overcast
10:53 PM 55.9 °F 45.0 °F 67% 30.18 in 10.0 mi NE 4.6 mph - N/A   Overcast
11:53 PM 55.9 °F 44.1 °F 64% 30.19 in 10.0 mi NE 5.8 mph - N/A   Overcast